Previsão horária em Bolshie Galashki

Hoje, 2 Março, Terça-feira

Tempo Temperatura Precipitação Vento Pressão Humidade
00:00 -21°C° 0 mm 2 m/s 722 mmHg 99%
01:00 -21°C° 0 mm 2 m/s 722 mmHg 99%
02:00 -21°C° 0 mm 2 m/s 721 mmHg 99%
03:00 -21°C° 0 mm 2 m/s 721 mmHg 98%
04:00 -23°C° 0 mm 3 m/s 720 mmHg 98%
05:00 -23°C° 0 mm 3 m/s 719 mmHg 98%
06:00 -23°C° 0 mm 3 m/s 719 mmHg 97%
07:00 -24°C° 0 mm 4 m/s 718 mmHg 97%
08:00 -23°C° 0 mm 4 m/s 718 mmHg 95%
09:00 -22°C° 0 mm 4 m/s 717 mmHg 93%
10:00 -19°C° 0 mm 4 m/s 717 mmHg 91%
11:00 -19°C° 0 mm 5 m/s 716 mmHg 90%
12:00 -18°C° 0 mm 5 m/s 716 mmHg 90%
13:00 -17°C° 0 mm 5 m/s 715 mmHg 90%
14:00 -15°C° 0.1 mm 5 m/s 715 mmHg 90%
15:00 -15°C° 0.1 mm 5 m/s 714 mmHg 90%
16:00 -14°C° 0.1 mm 5 m/s 714 mmHg 91%
17:00 -15°C° 0.1 mm 5 m/s 714 mmHg 91%
18:00 -15°C° 0.1 mm 5 m/s 713 mmHg 91%
19:00 -16°C° 0.1 mm 4 m/s 713 mmHg 91%
20:00 -16°C° 0.1 mm 4 m/s 713 mmHg 92%
21:00 -17°C° 0.1 mm 4 m/s 712 mmHg 92%
22:00 -17°C° 0.1 mm 4 m/s 712 mmHg 92%
23:00 -17°C° 0.1 mm 4 m/s 712 mmHg 92%

Amanhã, 3 Março, Quarta-feira

Tempo Temperatura Precipitação Vento Pressão Humidade
00:00 -16°C° 0.1 mm 4 m/s 711 mmHg 92%
01:00 -15°C° 0.1 mm 3 m/s 711 mmHg 92%
02:00 -15°C° 0.1 mm 3 m/s 710 mmHg 93%
03:00 -14°C° 0.1 mm 3 m/s 710 mmHg 94%
04:00 -14°C° 0.1 mm 3 m/s 710 mmHg 94%
05:00 -14°C° 0.2 mm 3 m/s 710 mmHg 95%
06:00 -12°C° 0.2 mm 2 m/s 710 mmHg 95%
07:00 -10°C° 0.2 mm 2 m/s 709 mmHg 95%
08:00 -10°C° 0.1 mm 2 m/s 710 mmHg 94%
09:00 -9°C° 0.1 mm 3 m/s 710 mmHg 93%
10:00 -7°C° 0.1 mm 3 m/s 710 mmHg 91%
11:00 -6°C° 0.1 mm 3 m/s 711 mmHg 90%
12:00 -6°C° 0.1 mm 3 m/s 711 mmHg 89%
13:00 -5°C° 0.1 mm 3 m/s 711 mmHg 88%
14:00 -5°C° 0 mm 3 m/s 711 mmHg 88%
15:00 -5°C° 0 mm 3 m/s 711 mmHg 88%
16:00 -6°C° 0 mm 3 m/s 711 mmHg 88%
17:00 -6°C° 0 mm 2 m/s 711 mmHg 90%
18:00 -7°C° 0 mm 2 m/s 711 mmHg 93%
19:00 -7°C° 0 mm 1 m/s 711 mmHg 96%
20:00 -7°C° 0 mm 1 m/s 711 mmHg 96%
21:00 -8°C° 0 mm 1 m/s 711 mmHg 96%
22:00 -8°C° 0 mm 1 m/s 711 mmHg 96%
23:00 -8°C° 0.1 mm 1 m/s 711 mmHg 96%

Depois de amanhã, 4 Março, Quinta-feira

Tempo Temperatura Precipitação Vento Pressão Humidade
00:00 -8°C° 0.1 mm 1 m/s 711 mmHg 96%
01:00 -8°C° 0.1 mm 1 m/s 710 mmHg 96%
02:00 -9°C° 0 mm 1 m/s 710 mmHg 96%
03:00 -9°C° 0 mm 1 m/s 711 mmHg 96%
04:00 -9°C° 0 mm 1 m/s 711 mmHg 96%
05:00 -9°C° 0.1 mm 1 m/s 711 mmHg 96%
06:00 -12°C° 0.1 mm 2 m/s 711 mmHg 96%
07:00 -12°C° 0.1 mm 2 m/s 710 mmHg 96%
08:00 -10°C° 0.1 mm 2 m/s 711 mmHg 95%
09:00 -10°C° 0.1 mm 3 m/s 711 mmHg 93%
10:00 -10°C° 0.1 mm 4 m/s 712 mmHg 92%
11:00 -10°C° 0 mm 4 m/s 712 mmHg 89%
12:00 -10°C° 0 mm 4 m/s 712 mmHg 87%
13:00 -10°C° 0 mm 4 m/s 712 mmHg 85%
14:00 -10°C° 0 mm 4 m/s 712 mmHg 86%
15:00 -10°C° 0 mm 4 m/s 713 mmHg 86%
16:00 -11°C° 0 mm 4 m/s 713 mmHg 87%
17:00 -12°C° 0 mm 4 m/s 713 mmHg 89%
18:00 -12°C° 0 mm 4 m/s 713 mmHg 91%
19:00 -14°C° 0 mm 4 m/s 713 mmHg 93%
20:00 -14°C° 0 mm 4 m/s 713 mmHg 93%
21:00 -14°C° 0 mm 4 m/s 713 mmHg 92%
22:00 -14°C° 0 mm 4 m/s 713 mmHg 92%
23:00 -14°C° 0.1 mm 4 m/s 712 mmHg 92%

5 Março, Sexta-feira

Tempo Temperatura Precipitação Vento Pressão Humidade
00:00 -14°C° 0.1 mm 4 m/s 711 mmHg 93%
01:00 -13°C° 0.1 mm 5 m/s 710 mmHg 93%
02:00 -13°C° 0.3 mm 5 m/s 709 mmHg 93%
03:00 -12°C° 0.3 mm 5 m/s 708 mmHg 93%
04:00 -11°C° 0.3 mm 6 m/s 707 mmHg 93%
05:00 -10°C° 0.4 mm 6 m/s 707 mmHg 93%
06:00 -9°C° 0.4 mm 6 m/s 706 mmHg 93%
07:00 -8°C° 0.4 mm 7 m/s 706 mmHg 93%
08:00 -7°C° 0.7 mm 8 m/s 706 mmHg 91%
09:00 -7°C° 0.7 mm 8 m/s 706 mmHg 89%
10:00 -6°C° 0.7 mm 9 m/s 706 mmHg 88%
11:00 -8°C° 0.1 mm 9 m/s 707 mmHg 86%
12:00 -8°C° 0.1 mm 8 m/s 707 mmHg 83%
13:00 -10°C° 0.1 mm 8 m/s 708 mmHg 81%
14:00 -11°C° 0.1 mm 8 m/s 709 mmHg 83%
15:00 -11°C° 0.1 mm 8 m/s 710 mmHg 85%
16:00 -12°C° 0.1 mm 8 m/s 711 mmHg 86%
17:00 -13°C° 0.1 mm 7 m/s 712 mmHg 87%
18:00 -14°C° 0.1 mm 7 m/s 712 mmHg 87%
19:00 -15°C° 0.1 mm 7 m/s 713 mmHg 87%
20:00 -15°C° 0 mm 7 m/s 714 mmHg 88%
21:00 -16°C° 0 mm 6 m/s 715 mmHg 89%
22:00 -17°C° 0 mm 6 m/s 716 mmHg 89%
23:00 -17°C° 0 mm 5 m/s 716 mmHg 90%

6 Março, Sábado

Tempo Temperatura Precipitação Vento Pressão Humidade
00:00 -18°C° 0 mm 5 m/s 717 mmHg 91%
01:00 -19°C° 0 mm 5 m/s 717 mmHg 92%
02:00 -18°C° 0 mm 4 m/s 718 mmHg 93%
03:00 -19°C° 0 mm 4 m/s 718 mmHg 93%
04:00 -19°C° 0 mm 4 m/s 719 mmHg 94%
05:00 -20°C° 0 mm 4 m/s 719 mmHg 94%
06:00 -20°C° 0 mm 4 m/s 719 mmHg 95%
07:00 -19°C° 0 mm 3 m/s 720 mmHg 95%
08:00 -19°C° 0 mm 3 m/s 720 mmHg 94%
09:00 -18°C° 0 mm 3 m/s 720 mmHg 93%
10:00 -17°C° 0 mm 3 m/s 720 mmHg 92%
11:00 -16°C° 0 mm 3 m/s 721 mmHg 91%
12:00 -16°C° 0 mm 4 m/s 721 mmHg 90%
13:00 -15°C° 0 mm 4 m/s 721 mmHg 88%
14:00 -14°C° 0 mm 3 m/s 721 mmHg 89%
15:00 -14°C° 0 mm 3 m/s 721 mmHg 89%
16:00 -13°C° 0 mm 2 m/s 720 mmHg 89%
17:00 -14°C° 0 mm 2 m/s 720 mmHg 92%
18:00 -13°C° 0 mm 1 m/s 719 mmHg 94%
19:00 -14°C° 0 mm 0 m/s 719 mmHg 96%
20:00 -14°C° 0 mm 1 m/s 718 mmHg 96%
21:00 -14°C° 0 mm 1 m/s 717 mmHg 96%
22:00 -13°C° 0 mm 1 m/s 716 mmHg 95%
23:00 -15°C° 0.4 mm 2 m/s 715 mmHg 95%

7 Março, Domingo

Tempo Temperatura Precipitação Vento Pressão Humidade
00:00 -15°C° 0.4 mm 2 m/s 714 mmHg 95%
01:00 -16°C° 0.4 mm 3 m/s 713 mmHg 95%
02:00 -16°C° 0.2 mm 3 m/s 713 mmHg 95%
03:00 -16°C° 0.2 mm 3 m/s 713 mmHg 95%
04:00 -17°C° 0.2 mm 3 m/s 712 mmHg 95%
05:00 -16°C° 0.1 mm 2 m/s 713 mmHg 95%
06:00 -16°C° 0.1 mm 2 m/s 713 mmHg 96%
07:00 -17°C° 0.1 mm 2 m/s 714 mmHg 96%
08:00 -16°C° 0 mm 2 m/s 715 mmHg 93%
09:00 -16°C° 0 mm 3 m/s 715 mmHg 91%
10:00 -15°C° 0 mm 3 m/s 716 mmHg 88%
11:00 -15°C° 0 mm 4 m/s 716 mmHg 87%
12:00 -14°C° 0 mm 4 m/s 716 mmHg 86%
13:00 -14°C° 0 mm 4 m/s 717 mmHg 85%
14:00 -14°C° 0.1 mm 5 m/s 717 mmHg 85%
15:00 -14°C° 0.1 mm 5 m/s 717 mmHg 85%
16:00 -14°C° 0.1 mm 5 m/s 717 mmHg 86%
17:00 -15°C° 0.1 mm 4 m/s 717 mmHg 88%
18:00 -17°C° 0.1 mm 4 m/s 717 mmHg 90%
19:00 -18°C° 0.1 mm 4 m/s 718 mmHg 92%
20:00 -18°C° 0 mm 4 m/s 718 mmHg 92%
21:00 -19°C° 0 mm 4 m/s 718 mmHg 93%
22:00 -19°C° 0 mm 4 m/s 718 mmHg 93%
23:00 -19°C° 0 mm 3 m/s 718 mmHg 95%
Mostrar mais